Weather History for Whiteman AFB, MO

Change the Weather History Date:

Sunday, April 21, 2013

  Actual Average Record
Temperature  
Mean Temperature 56 °F -  
Max Temperature 68 °F 65 °F 82 °F (2005)
Min Temperature 46 °F 46 °F 35 °F (2012)
Degree Days  
Heating Degree Days 8    
Growing Degree Days 6 (Base 50)    
Moisture  
Dew Point 40 °F    
Average Humidity 54    
Maximum Humidity 76    
Minimum Humidity 38    
Precipitation  
Precipitation 0.00 in - - ()
Sea Level Pressure  
Sea Level Pressure 30.21 in    
Wind  
Wind Speed 11 mph (SSE)    
Max Wind Speed 21 mph    
Max Gust Speed 26 mph    
Visibility 10 miles    
Events      
Averages and records for this station are not official NWS values.
T = Trace of Precipitation, MM = Missing Value Source: NWS Daily Summary

Daily Weather History Graph

Daily Weather History Graph

Search for Another Location

Airport:

Trip Planner

Search our weather history database for the weather conditions in past years. The results will help you decide how hot, cold, wet, or windy it might be!

Date:

Astronomy

Apr. 21, 2013 Rise Set
Actual Time 6:29 AM CDT 7:57 PM CDT
Civil Twilight 6:01 AM CDT 8:25 PM CDT
Nautical Twilight 5:27 AM CDT 8:58 PM CDT
Astronomical Twilight 4:52 AM CDT 9:34 PM CDT
Moon 3:45 PM CDT (4/21) 3:48 AM CDT (4/21)
Length of Visible Light 14h 23m
Length of Day
13h 27m
Waxing Gibbous, 80% of the Moon is Illuminated
Apr 21
Waxing Gibbous
Apr 25
Full
May 2
Last Quarter
May 9
New
May 17
First Quarter

Hourly Weather History & Observations

Time (CDT) Temp. Windchill Dew Point Humidity Pressure Visibility Wind Dir Wind Speed Gust Speed Precip Events Conditions
12:58 AM 47.5 °F - 33.6 °F 59% 30.23 in 10.0 mi ESE 8.1 mph - N/A   Partly Cloudy
1:56 AM 46.4 °F 42.4 °F 33.8 °F 62% 30.21 in 10.0 mi ESE 8.1 mph - N/A   Clear
2:58 AM 47.1 °F - 34.0 °F 60% 30.22 in 10.0 mi ESE 8.1 mph - N/A   Clear
3:58 AM 46.9 °F - 35.4 °F 64% 30.22 in 10.0 mi ESE 8.1 mph - N/A   Clear
4:58 AM 47.8 °F - 38.1 °F 69% 30.23 in 10.0 mi SE 5.8 mph - N/A   Partly Cloudy
5:58 AM 47.8 °F - 40.5 °F 76% 30.24 in 10.0 mi SE 4.6 mph - N/A   Partly Cloudy
6:58 AM 49.5 °F - 41.2 °F 73% 30.27 in 10.0 mi SSE 9.2 mph - N/A   Overcast
7:58 AM 50.5 °F - 41.4 °F 71% 30.27 in 10.0 mi SSE 10.4 mph - N/A   Scattered Clouds
8:58 AM 52.9 °F - 42.1 °F 67% 30.27 in 10.0 mi SSE 11.5 mph - N/A   Partly Cloudy
9:58 AM 55.4 °F - 43.0 °F 63% 30.28 in 10.0 mi South 16.1 mph 20.7 mph N/A   Mostly Cloudy
10:58 AM 58.8 °F - 44.6 °F 59% 30.28 in 10.0 mi South 17.3 mph - N/A   Overcast
11:58 AM 60.8 °F - 44.2 °F 54% 30.27 in 10.0 mi South 13.8 mph - N/A   Overcast
12:58 PM 64.4 °F - 44.8 °F 49% 30.24 in 10.0 mi South 15.0 mph - N/A   Overcast
1:58 PM 65.8 °F - 43.2 °F 44% 30.21 in 10.0 mi South 16.1 mph 21.9 mph N/A   Overcast
2:42 PM 66.2 °F - 41.0 °F 40% 30.19 in 10.0 mi South 18.4 mph 23.0 mph N/A   Mostly Cloudy
2:52 PM 66.2 °F - 41.0 °F 40% 30.18 in 10.0 mi SSE 20.7 mph - N/A   Mostly Cloudy
2:53 PM 66.2 °F - 41.0 °F 40% 30.18 in 10.0 mi SSE 20.7 mph - N/A   Overcast
2:58 PM 65.7 °F - 40.3 °F 39% 30.19 in 10.0 mi South 18.4 mph 25.3 mph N/A   Overcast
3:58 PM 66.9 °F - 40.5 °F 38% 30.16 in 10.0 mi South 18.4 mph 26.5 mph N/A   Mostly Cloudy
4:58 PM 67.5 °F - 41.9 °F 39% 30.15 in 10.0 mi South 13.8 mph - N/A   Mostly Cloudy
5:58 PM 66.0 °F - 40.6 °F 39% 30.14 in 10.0 mi South 11.5 mph - N/A   Mostly Cloudy
6:58 PM 64.0 °F - 41.9 °F 44% 30.14 in 10.0 mi South 10.4 mph - N/A   Partly Cloudy
7:58 PM 59.2 °F - 40.8 °F 51% 30.16 in 10.0 mi South 8.1 mph - N/A   Mostly Cloudy
8:58 PM 60.1 °F - 40.5 °F 48% 30.17 in 10.0 mi SSE 8.1 mph - N/A   Overcast
9:58 PM 56.1 °F - 41.0 °F 57% 30.18 in 10.0 mi South 9.2 mph - N/A   Partly Cloudy
10:58 PM 56.1 °F - 40.5 °F 56% 30.18 in 10.0 mi South 8.1 mph - N/A   Mostly Cloudy
11:58 PM 56.8 °F - 38.8 °F 51% 30.19 in 10.0 mi SSE 8.1 mph - N/A   Overcast